This demonstration page uses our WeatherBlox Daily Observations layout. Learn more.

39.51506, -84.39828

Hourly Observations for November 29, 2019

Temp ( °F °C ) Dew Point ( °F °C ) Humidity (%) Winds ( mph kmh ) Pressure ( in mb ) Visibility ( mi km ) Precip ( " mm )
12:15 am 00:15 Cloudy 37 2.6 31 -0.8 79 79 Calm 30.45 1031 10 16.0934 0 0
12:35 am 00:35 Cloudy 37 2.5 31 -0.6 80 80 E 3 6 30.43 1030 10 16.0934 0 0
12:55 am 00:55 Cloudy 37 2.5 32 -0.2 83 83 Calm 30.46 1031 10 16.0934 0 0
1:15 am 01:15 Cloudy 37 2.5 33 0.3 86 86 Calm 30.46 1031 10 16.0934 0 0
1:35 am 01:35 Cloudy 37 2.5 32 0.2 85 85 Calm 30.44 1031 10 16.0934 0 0
1:55 am 01:55 Cloudy 37 2.6 32 0.1 84 84 Calm 30.45 1031 10 16.0934 0 0
2:15 am 02:15 Cloudy 37 2.6 32 -0.1 83 83 Calm 30.45 1031 10 16.0934 0 0
2:35 am 02:35 Cloudy 37 2.7 31 -0.4 80 80 Calm 30.45 1031 10 16.0934 0 0
2:55 am 02:55 Cloudy 36 2.4 32 -0.1 84 84 ENE 6 9 30.44 1031 10 16.0934 0 0
3:15 am 03:15 Cloudy 37 2.8 32 -0.2 81 81 NNE 3 6 30.44 1031 10 16.0934 0 0
3:35 am 03:35 Mostly Cloudy 37 2.5 31 -0.3 82 82 NE 3 6 30.44 1031 10 16.0934 0 0
3:55 am 03:55 Partly Cloudy 36 2.3 32 -0.2 84 84 Calm 30.43 1030 10 16.0934 0 0
4:15 am 04:15 Mostly Cloudy 36 2.2 32 -0.1 85 85 ENE 5 7 30.42 1030 10 16.0934 0 0
4:35 am 04:35 Partly Cloudy 36 2.2 32 -0.2 84 84 NE 3 6 30.43 1030 10 16.0934 0 0
4:55 am 04:55 Cloudy 37 2.6 32 0 83 83 ENE 3 6 30.42 1030 10 16.0934 0 0
5:15 am 05:15 Cloudy 37 2.6 31 -0.6 80 80 Calm 30.43 1030 10 16.0934 0 0
5:35 am 05:35 Cloudy 36 2.3 31 -0.5 82 82 ENE 6 9 30.42 1030 10 16.0934 0 0
5:55 am 05:55 Cloudy 36 2.2 31 -0.7 81 81 ENE 5 7 30.42 1030 10 16.0934 0 0
6:15 am 06:15 Cloudy 35 1.9 31 -0.5 84 84 E 3 6 30.42 1030 10 16.0934 0 0
6:35 am 06:35 Cloudy 36 2.4 31 -0.5 81 81 Calm 30.43 1030 10 16.0934 0 0
6:55 am 06:55 Cloudy with Light Rain 37 2.5 31 -0.5 81 81 ENE 3 6 30.42 1030 10 16.0934 0 0
7:15 am 07:15 Cloudy 37 2.5 31 -0.3 82 82 ENE 3 6 30.42 1030 10 16.0934 0 0
7:35 am 07:35 Cloudy 37 2.5 32 -0.2 83 83 Calm 30.43 1030 10 16.0934 0 0
7:55 am 07:55 Cloudy with Light Rain 37 2.5 32 -0.2 83 83 Calm 30.44 1031 10 16.0934 0 0
8:15 am 08:15 Cloudy 37 2.6 32 -0.2 82 82 Calm 30.45 1031 10 16.0934 0 0
8:35 am 08:35 Cloudy with Light Rain 37 2.6 32 0.1 84 84 Calm 30.43 1030 10 16.0934 0 0
8:55 am 08:55 Cloudy with Light Rain 37 2.7 32 0.1 83 83 E 3 6 30.43 1030 10 16.0934 0 0
9:15 am 09:15 Cloudy 37 2.8 33 0.3 84 84 Calm 30.43 1030 10 16.0934 0 0
9:35 am 09:35 Cloudy 37 3 33 0.4 83 83 NE 3 6 30.41 1030 10 16.0934 0 0
9:55 am 09:55 Cloudy 38 3.1 32 0.2 81 81 NE 3 6 30.42 1030 10 16.0934 0 0
10:15 am 10:15 Cloudy 38 3.5 32 0.1 79 79 Calm 30.42 1030 10 16.0934 0 0
10:35 am 10:35 Cloudy 38 3.5 32 -0.2 77 77 Calm 30.43 1030 10 16.0934 0 0
10:55 am 10:55 Cloudy 39 3.7 32 -0.2 76 76 ENE 3 6 30.42 1030 10 16.0934 0 0
11:15 am 11:15 Cloudy 38 3.6 31 -0.4 75 75 ENE 3 6 30.42 1030 10 16.0934 0 0
11:35 am 11:35 Cloudy 39 3.9 31 -0.3 74 74 NE 3 6 30.4 1029 10 16.0934 0 0
11:55 am 11:55 Cloudy with Light Drizzle 40 4.3 32 0 74 74 E 5 7 30.37 1029 10 16.0934 0 0
12:15 pm 12:15 Cloudy 40 4.3 32 -0.1 73 73 NNE 5 7 30.36 1028 10 16.0934 0 0
12:35 pm 12:35 Cloudy 39 4.1 32 -0.2 74 74 Calm 30.35 1028 10 16.0934 0 0
12:55 pm 12:55 Cloudy 40 4.2 32 -0.1 74 74 Calm 30.34 1028 10 16.0934 0 0
1:15 pm 13:15 Cloudy 40 4.2 31 -0.3 73 73 Calm 30.32 1027 10 16.0934 0 0
1:35 pm 13:35 Cloudy 40 4.3 32 0 74 74 Calm 30.31 1027 10 16.0934 0 0
1:55 pm 13:55 Cloudy 40 4.5 32 -0.1 72 72 NE 5 7 30.3 1026 10 16.0934 0 0
2:15 pm 14:15 Cloudy 40 4.6 32 -0.1 72 72 Calm 30.29 1026 10 16.0934 0 0
2:35 pm 14:35 Cloudy 41 4.8 32 0.1 72 72 Calm 30.28 1025 10 16.0934 0 0
2:55 pm 14:55 Cloudy with Haze 41 4.8 32 0 71 71 ENE 3 6 30.27 1025 3.5 5.63269 0 0
3:15 pm 15:15 Cloudy 40 4.7 32 -0.2 71 71 ESE 3 6 30.27 1025 10 16.0934 0 0
3:35 pm 15:35 Cloudy 40 4.7 32 -0.1 71 71 Calm 30.28 1025 10 16.0934 0 0
3:55 pm 15:55 Cloudy 40 4.7 32 0 72 72 Calm 30.29 1026 10 16.0934 0 0
4:15 pm 16:15 Cloudy 40 4.6 32 0 72 72 Calm 30.27 1025 10 16.0934 0 0
4:35 pm 16:35 Cloudy 40 4.6 32 -0.1 72 72 Calm 30.28 1025 10 16.0934 0 0
4:55 pm 16:55 Cloudy 40 4.5 32 0 73 73 Calm 30.29 1026 10 16.0934 0 0
5:15 pm 17:15 Cloudy 40 4.5 33 0.5 76 76 NE 3 6 30.28 1026 10 16.0934 0 0
5:35 pm 17:35 Cloudy 40 4.4 32 0.2 74 74 NE 3 6 30.28 1026 10 16.0934 0 0
5:55 pm 17:55 Cloudy 40 4.4 32 0.2 74 74 ENE 3 6 30.29 1026 10 16.0934 0 0
6:15 pm 18:15 Cloudy 40 4.4 33 0.3 75 75 NE 6 9 30.27 1025 10 16.0934 0 0
6:35 pm 18:35 Cloudy 40 4.5 32 0.2 74 74 Calm 30.26 1025 10 16.0934 0 0
6:55 pm 18:55 Cloudy 40 4.5 32 0.1 73 73 Calm 30.26 1025 10 16.0934 0 0
7:15 pm 19:15 Cloudy 40 4.4 33 0.3 75 75 ESE 5 7 30.26 1025 10 16.0934 0 0
7:35 pm 19:35 Cloudy 40 4.4 32 0.2 74 74 E 3 6 30.25 1024 10 16.0934 0 0
7:55 pm 19:55 Cloudy 40 4.4 32 0.1 74 74 ENE 3 6 30.24 1024 10 16.0934 0 0
8:15 pm 20:15 Cloudy 40 4.4 32 0.1 74 74 E 5 7 30.23 1024 10 16.0934 0 0
8:35 pm 20:35 Cloudy 40 4.4 32 0.1 74 74 ENE 5 7 30.23 1024 10 16.0934 0 0
8:55 pm 20:55 Cloudy 40 4.3 32 -0.1 73 73 ENE 6 9 30.22 1023 10 16.0934 0 0
9:15 pm 21:15 Partly Cloudy 39 4.1 32 -0.1 74 74 ENE 5 7 30.2 1023 10 16.0934 0 0
9:35 pm 21:35 Cloudy 40 4.4 32 0 73 73 E 5 7 30.22 1023 10 16.0934 0 0
9:55 pm 21:55 Cloudy 40 4.3 32 0.1 74 74 ENE 7 11 30.21 1023 10 16.0934 0 0
10:15 pm 22:15 Cloudy 40 4.4 32 -0.2 72 72 ENE 3 6 30.22 1023 10 16.0934 0 0
10:35 pm 22:35 Cloudy 40 4.4 32 0 73 73 ENE 3 6 30.21 1023 10 16.0934 0 0
10:55 pm 22:55 Cloudy 40 4.3 32 0 74 74 ENE 6 9 30.2 1023 10 16.0934 0 0
11:15 pm 23:15 Cloudy 40 4.4 32 0 73 73 Calm 30.21 1023 10 16.0934 0 0
11:35 pm 23:35 Cloudy 40 4.3 32 0.2 75 75 E 5 7 30.18 1022 10 16.0934 0 0
11:55 pm 23:55 Cloudy 40 4.3 32 0.2 75 75 ENE 6 9 30.18 1022 10 16.0934 0 0

Powered by AerisWeather